Location: Ar Ranvel
(48.3000°N, 4.8833°W)
Time: 08:51:10
(UTC+00:00)

Cosmos 1867 - Pass Details

Date: 16 June 2021
Orbit: 773 x 803 km, 65.0° (Epoch: 02 August)

Event Time Altitude Azimuth Distance (km) Brightness Sun altitude
Rises 23:22:13 0° 320° (NW) 3,322 8.0 -17.1°
Reaches altitude 10° 23:24:40 10° 319° (NW) 2,388 7.0 -17.2°
Maximum altitude 23:30:09 72° 236° (SW) 846 3.6 -17.4°
Enters shadow 23:32:53 30° 159° (SSE) 1,401 4.3 -17.5°
